Location: Black Swamp Observatory
(41.3920°N, 84.1250°W)
Time: 05:33:42
(UTC-04:00)

Amateur Radio Satellites - All Passes

Search period start: 24 October 2014 05:03
Search period end: 25 October 2014 05:03
Location: Black Swamp Observatory, 41.3920°N, 84.1250°W

Satellite Date Start Highest point End Downlink Frequencies (MHz)
Time Altitude Azimuth
OPAL 24 Oct 05:04:55 05:09:27 33° 65° (ENE) 05:13:58 ?
Oscar 19 24 Oct 05:09:14 05:10:16 11° 303° (WNW) 05:11:18 437.125 CW, 437.150 USB
JAS-1B 24 Oct 05:16:22 05:20:59 21° 299° (WNW) 05:26:07 435.800 - 435.900 CW/SSB
AO-27 24 Oct 05:22:31 05:26:04 19° 298° (WNW) 05:29:38 436.795 MHz FM
Sapphire 24 Oct 05:55:51 06:00:58 42° 306° (NW) 06:06:08 437.095 MHz 1200 baud AX-25 AFSK
Uosat F 24 Oct 05:59:05 06:04:07 64° 102° (ESE) 06:09:07 435.120 FM
JAS-2 24 Oct 06:05:55 06:12:31 30° 92° (E) 06:19:06 435.800 - 435.900 CW/SSB, 435.910 FM
Hamsat 24 Oct 06:11:26 06:11:40 10° 89° (E) 06:11:55 145.90 MHz
AO-7 24 Oct 06:18:33 06:26:56 90° 283° (WNW) 06:35:17 29.400 - 29.500 MHz
PCSat 24 Oct 06:19:17 06:23:53 27° 311° (NW) 06:28:30 145.825 MHz
OPAL 24 Oct 06:43:44 06:48:17 31° 261° (W) 06:52:49 ?
STRAND 1 24 Oct 06:47:58 06:52:26 31° 67° (ENE) 06:56:57 ?
RS-15 24 Oct 07:13:44 07:24:29 50° 46° (NE) 07:35:37 29.354 - 29.394 USB, Beacon 29.352 USB
Uosat F 24 Oct 07:39:17 07:42:22 17° 299° (WNW) 07:45:26 435.120 FM
Hamsat 24 Oct 07:43:53 07:48:03 66° 285° (WNW) 07:52:13 145.90 MHz
JAS-2 24 Oct 07:50:14 07:57:50 62° 289° (WNW) 08:05:30 435.800 - 435.900 CW/SSB, 435.910 FM
SO-67 24 Oct 07:57:19 07:59:50 19° 94° (E) 08:02:20 435.3500 MHz FM
AO-7 24 Oct 08:12:47 08:18:39 22° 308° (NW) 08:24:33 29.400 - 29.500 MHz
STRAND 1 24 Oct 08:27:02 08:31:34 32° 264° (W) 08:36:09 ?
Saudisat 1A 24 Oct 08:38:58 08:43:19 70° 120° (ESE) 08:47:43 436.775 MHz
RS-15 24 Oct 09:26:18 09:36:59 53° 248° (WSW) 09:48:07 29.354 - 29.394 USB, Beacon 29.352 USB
SO-67 24 Oct 09:29:59 09:32:46 23° 290° (WNW) 09:35:33 435.3500 MHz FM
JAS-2 24 Oct 09:37:57 09:41:24 14° 308° (NW) 09:44:54 435.800 - 435.900 CW/SSB, 435.910 FM
MaSat-1 24 Oct 09:40:31 09:42:31 19° 55° (NE) 09:44:24 437.345 MHz
HO-68 24 Oct 09:46:46 09:52:59 31° 95° (E) 09:59:09 435.675 MHz FM
PANSAT 24 Oct 09:51:16 09:52:36 12° 176° (S) 09:53:56 not established
Saudisat 1A 24 Oct 10:20:29 10:23:21 17° 319° (NW) 10:26:15 436.775 MHz
ZACube-1 24 Oct 10:45:48 10:47:18 12° 89° (E) 10:48:48 437.345 MHz
UKube-1 24 Oct 10:50:16 10:54:17 35° 98° (E) 10:58:16 145.840 MHz, 145.915 MHz
MaSat-1 24 Oct 11:17:17 11:17:51 11° 256° (WSW) 11:18:25 437.345 MHz
FUNcube-1 24 Oct 11:28:43 11:32:39 35° 97° (E) 11:36:29 145.950 - 145.970 MHz USB
Oscar 11 24 Oct 11:32:10 11:36:30 83° 284° (WNW) 11:40:48 145.825 FM, Beacon 2401.500 USB
HO-68 24 Oct 11:33:59 11:40:55 52° 293° (WNW) 11:47:48 435.675 MHz FM
ZACube-1 24 Oct 12:19:55 12:24:07 58° 286° (WNW) 12:28:13 437.345 MHz
UKube-1 24 Oct 12:26:55 12:30:16 22° 294° (WNW) 12:33:35 145.840 MHz, 145.915 MHz
KITSAT 1 24 Oct 12:39:53 12:47:28 47° 111° (ESE) 12:55:04 435.175 FM
Sapphire 24 Oct 13:00:33 13:05:05 26° 48° (NE) 13:09:35 437.095 MHz 1200 baud AX-25 AFSK
FUNcube-1 24 Oct 13:05:42 13:08:46 20° 294° (WNW) 13:11:48 145.950 - 145.970 MHz USB
Oscar 19 24 Oct 13:06:19 13:09:52 19° 63° (ENE) 13:13:25 437.125 CW, 437.150 USB
ISS 24 Oct 13:10:21 13:13:08 25° 135° (SE) 13:15:57 145.800 FM
PCSat 24 Oct 13:22:52 13:27:59 40° 53° (NE) 13:33:03 145.825 MHz
AO-27 24 Oct 13:24:34 13:26:33 12° 58° (ENE) 13:28:33 436.795 MHz FM
HO-68 24 Oct 13:26:15 13:26:59 10° 313° (NW) 13:27:43 435.675 MHz FM
Oscar 10/S400 24 Oct 13:26:16 13:44:03 29° 151° (SSE) 14:00:47 145.825 - 145.975 CW/USB, Beacon 145.810 USB
Oscar 16 24 Oct 13:50:17 13:55:13 48° 71° (ENE) 14:00:10 437.025 USB, Beacon 2401.1428
AO-Echo 24 Oct 13:50:34 13:54:27 24° 65° (ENE) 13:58:27 ?
SO-50 24 Oct 14:07:25 14:11:54 90° 120° (ESE) 14:16:33 436.795 FM
Uribyol 2 24 Oct 14:09:24 14:13:59 32° 67° (ENE) 14:18:35 436.500 FM
JAS-1B 24 Oct 14:11:05 14:16:59 61° 72° (ENE) 14:22:34 435.800 - 435.900 CW/SSB
ITAMSAT 1 24 Oct 14:15:14 14:19:52 34° 67° (ENE) 14:24:33 435.822 SSB
Gurwin Techsat 1B 24 Oct 14:32:40 14:37:01 27° 65° (ENE) 14:41:23 435.225 FM
KITSAT 1 24 Oct 14:35:17 14:42:54 44° 311° (NW) 14:50:34 435.175 FM
Sapphire 24 Oct 14:43:32 14:48:47 51° 247° (WSW) 14:54:00 437.095 MHz 1200 baud AX-25 AFSK
Oscar 19 24 Oct 14:43:44 14:48:47 56° 259° (W) 14:53:51 437.125 CW, 437.150 USB
TMSAT-1 24 Oct 14:44:19 14:48:34 25° 65° (ENE) 14:52:50 436.925 FM
ISS 24 Oct 14:46:32 14:49:42 41° 331° (NNW) 14:52:54 145.800 FM
AO-27 24 Oct 15:00:03 15:05:15 88° 75° (ENE) 15:10:31 436.795 MHz FM
PCSat 24 Oct 15:06:34 15:11:14 30° 251° (WSW) 15:15:53 145.825 MHz
AO-7 24 Oct 15:26:53 15:33:34 29° 55° (NE) 15:40:16 29.400 - 29.500 MHz
AO-Echo 24 Oct 15:28:25 15:32:58 40° 263° (W) 15:37:42 ?
Oscar 16 24 Oct 15:31:02 15:34:49 20° 267° (W) 15:38:36 437.025 USB, Beacon 2401.1428
UOSAT-12 24 Oct 15:33:27 15:38:01 63° 119° (ESE) 15:42:41 437.025 FM, 437.400 FM
Uosat F 24 Oct 15:37:41 15:39:22 12° 58° (ENE) 15:41:04 435.120 FM
Uribyol 2 24 Oct 15:48:46 15:53:24 32° 264° (W) 15:58:04 436.500 FM
SO-50 24 Oct 15:50:32 15:53:10 15° 322° (NW) 15:55:50 436.795 FM
ITAMSAT 1 24 Oct 15:54:49 15:59:21 30° 264° (W) 16:03:55 435.822 SSB
JAS-1B 24 Oct 16:04:29 16:08:08 17° 268° (W) 16:11:41 435.800 - 435.900 CW/SSB
Gurwin Techsat 1B 24 Oct 16:11:48 16:16:46 40° 262° (W) 16:21:46 435.225 FM
JAS-2 24 Oct 16:22:45 16:24:32 11° 50° (NE) 16:26:21 435.800 - 435.900 CW/SSB, 435.910 FM
TMSAT-1 24 Oct 16:23:13 16:28:14 43° 262° (W) 16:33:17 436.925 FM
ISS 24 Oct 16:24:57 16:27:04 16° 351° (N) 16:29:12 145.800 FM
KITSAT 1 24 Oct 16:36:26 16:40:47 15° 338° (NNW) 16:45:08 435.175 FM
AO-27 24 Oct 16:44:20 16:45:27 11° 272° (W) 16:46:33 436.795 MHz FM
Saudisat 1A 24 Oct 17:05:34 17:09:56 56° 54° (NE) 17:14:16 436.775 MHz
Uosat F 24 Oct 17:12:21 17:17:22 89° 75° (ENE) 17:22:26 435.120 FM
UOSAT-12 24 Oct 17:15:09 17:18:35 20° 318° (NW) 17:22:04 437.025 FM, 437.400 FM
AO-7 24 Oct 17:17:28 17:25:41 70° 255° (WSW) 17:33:59 29.400 - 29.500 MHz
JAS-2 24 Oct 18:02:12 18:08:02 64° 71° (ENE) 18:14:41 435.800 - 435.900 CW/SSB, 435.910 FM
ISS 24 Oct 18:02:32 18:04:46 17° 11° (NNE) 18:07:00 145.800 FM
Hamsat 24 Oct 18:36:52 18:41:05 87° 77° (ENE) 18:45:18 145.90 MHz
KITSAT 1 24 Oct 18:38:04 18:40:33 11° 9° (N) 18:43:01 435.175 FM
Saudisat 1A 24 Oct 18:46:25 18:49:03 16° 250° (WSW) 18:51:40 436.775 MHz
OPAL 24 Oct 18:52:49 18:57:47 67° 104° (ESE) 19:02:41 ?
AO-7 24 Oct 19:17:06 19:19:53 12° 273° (W) 19:22:40 29.400 - 29.500 MHz
ISS 24 Oct 19:38:47 19:42:03 49° 31° (NNE) 19:45:18 145.800 FM
JAS-2 24 Oct 19:49:34 19:53:48 20° 272° (W) 19:58:24 435.800 - 435.900 CW/SSB, 435.910 FM
SO-67 24 Oct 20:01:42 20:05:08 74° 259° (WSW) 20:08:35 435.3500 MHz FM
HO-68 24 Oct 20:16:20 20:21:51 25° 58° (ENE) 20:27:23 435.675 MHz FM
KITSAT 1 24 Oct 20:32:48 20:39:25 27° 39° (NE) 20:46:00 435.175 FM
OPAL 24 Oct 20:33:11 20:36:06 16° 301° (WNW) 20:39:01 ?
STRAND 1 24 Oct 20:36:46 20:41:58 87° 104° (ESE) 20:47:06 ?
SO-50 24 Oct 20:59:39 21:02:24 15° 38° (NE) 21:05:09 436.795 FM
ISS 24 Oct 21:16:00 21:18:31 20° 227° (SW) 21:21:02 145.800 FM
AO-40 24 Oct 21:16:37 23:28:47 30° 209° (SSW) 03:50:50 Beacon 2401.320
RS-15 24 Oct 21:40:16 21:48:41 26° 103° (ESE) 21:56:59 29.354 - 29.394 USB, Beacon 29.352 USB
ZACube-1 24 Oct 21:42:44 21:44:30 12° 62° (ENE) 21:46:16 437.345 MHz
UKube-1 24 Oct 21:45:51 21:49:41 31° 69° (ENE) 21:53:33 145.840 MHz, 145.915 MHz
HO-68 24 Oct 22:01:48 22:08:55 69° 256° (WSW) 22:16:07 435.675 MHz FM
STRAND 1 24 Oct 22:18:12 22:20:24 13° 301° (WNW) 22:22:35 ?
FUNcube-1 24 Oct 22:24:52 22:28:55 32° 70° (ENE) 22:32:55 145.950 - 145.970 MHz USB
UOSAT-12 24 Oct 22:25:16 22:26:30 11° 33° (NNE) 22:27:44 437.025 FM, 437.400 FM
Oscar 11 24 Oct 22:26:57 22:31:16 77° 76° (ENE) 22:35:36 145.825 FM, Beacon 2401.500 USB
KITSAT 1 24 Oct 22:27:43 22:35:50 86° 241° (WSW) 22:43:54 435.175 FM
SO-50 24 Oct 22:38:51 22:43:43 82° 56° (ENE) 22:48:36 436.795 FM
ZACube-1 24 Oct 23:15:42 23:20:18 75° 258° (WSW) 23:24:51 437.345 MHz
UKube-1 24 Oct 23:22:24 23:25:53 23° 265° (W) 23:29:23 145.840 MHz, 145.915 MHz
RS-15 24 Oct 23:48:43 23:59:44 81° 304° (WNW) 00:10:45 29.354 - 29.394 USB, Beacon 29.352 USB
HO-68 24 Oct 23:56:52 23:57:51 10° 274° (W) 23:58:49 435.675 MHz FM
FUNcube-1 25 Oct 00:01:29 00:05:16 25° 265° (W) 00:09:02 145.950 - 145.970 MHz USB
UOSAT-12 25 Oct 00:03:04 00:07:43 55° 53° (NE) 00:12:17 437.025 FM, 437.400 FM
SO-50 25 Oct 00:21:42 00:23:37 12° 253° (WSW) 00:25:33 436.795 FM
KITSAT 1 25 Oct 00:25:18 00:30:03 17° 259° (W) 00:34:48 435.175 FM
MaSat-1 25 Oct 00:51:23 00:55:32 74° 296° (WNW) 00:59:18 437.345 MHz
UOSAT-12 25 Oct 01:44:19 01:47:25 18° 250° (WSW) 01:50:29 437.025 FM, 437.400 FM
JAS-1B 25 Oct 01:54:20 01:58:51 18° 93° (E) 02:03:47 435.800 - 435.900 CW/SSB
Oscar 16 25 Oct 02:03:05 02:06:18 17° 91° (E) 02:09:30 437.025 USB, Beacon 2401.1428
RS-15 25 Oct 02:04:54 02:14:02 29° 331° (NNW) 02:23:18 29.354 - 29.394 USB, Beacon 29.352 USB
Uribyol 2 25 Oct 02:25:02 02:25:46 10° 88° (E) 02:26:31 436.500 FM
ITAMSAT 1 25 Oct 02:30:18 02:31:53 11° 89° (E) 02:33:27 435.822 SSB
Oscar 10/S400 25 Oct 02:32:40 03:24:01 16° 246° (WSW) 05:02:20 145.825 - 145.975 CW/USB, Beacon 145.810 USB
Oscar 19 25 Oct 02:55:11 03:00:11 51° 100° (E) 03:05:09 437.125 CW, 437.150 USB
AO-27 25 Oct 03:13:27 03:18:06 31° 96° (E) 03:22:42 436.795 MHz FM
AO-Echo 25 Oct 03:34:52 03:40:10 67° 102° (ESE) 03:45:27 ?
Oscar 16 25 Oct 03:41:00 03:46:02 58° 288° (WNW) 03:51:02 437.025 USB, Beacon 2401.1428
JAS-1B 25 Oct 03:43:10 03:49:51 82° 286° (WNW) 03:57:52 435.800 - 435.900 CW/SSB
Sapphire 25 Oct 03:43:35 03:47:28 20° 106° (ESE) 03:51:22 437.095 MHz 1200 baud AX-25 AFSK
Uribyol 2 25 Oct 04:00:41 04:05:56 90° 281° (W) 04:11:08 436.500 FM
PCSat 25 Oct 04:04:57 04:09:46 34° 110° (ESE) 04:14:38 145.825 MHz
ITAMSAT 1 25 Oct 04:06:45 04:12:01 85° 285° (WNW) 04:17:13 435.822 SSB
RS-15 25 Oct 04:23:43 04:31:29 21° 7° (N) 04:39:23 29.354 - 29.394 USB, Beacon 29.352 USB
Gurwin Techsat 1B 25 Oct 04:27:28 04:32:49 81° 103° (ESE) 04:38:08 435.225 FM
OPAL 25 Oct 04:31:28 04:34:35 17° 59° (ENE) 04:37:42 ?
Oscar 19 25 Oct 04:35:28 04:39:08 20° 297° (WNW) 04:42:47 437.125 CW, 437.150 USB
TMSAT-1 25 Oct 04:38:36 04:43:56 77° 103° (ESE) 04:49:13 436.925 FM
AO-27 25 Oct 04:52:56 04:57:33 33° 293° (WNW) 05:02:09 436.795 MHz FM
